Time,TemperatureF,DewpointF,PressureIn,WindDirection,WindDirectionDegrees,WindSpeedMPH,WindSpeedGustMPH,Humidity,HourlyPrecipIn,Conditions,Clouds,dailyrainin,SoftwareType,DateUTC
2013-11-05 07:44:00,48.3,39.3,30.42,SSW,195,0.0,0.0,71,0.00,CLR,,0.00,WeatherDisplay:10.37,2013-11-05 12:44:00,
2013-11-05 07:46:00,48.3,39.3,30.42,SSW,195,1.2,1.2,71,0.00,CLR,,0.00,WeatherDisplay:10.37,2013-11-05 12:46:00,
2013-11-05 07:47:00,48.4,39.4,30.42,SSW,195,1.2,1.2,71,0.00,CLR,,0.00,WeatherDisplay:10.37,2013-11-05 12:47:00,
2013-11-05 07:52:00,48.4,39.1,30.42,SSW,195,0.0,0.0,70,0.00,CLR,,0.00,WeatherDisplay:10.37,2013-11-05 12:52:00,
2013-11-05 07:55:00,48.5,39.2,30.42,SSW,195,1.2,1.2,70,0.00,CLR,,0.00,WeatherDisplay:10.37,2013-11-05 12:55:00,
2013-11-05 08:00:00,48.8,39.1,30.43,SSW,195,2.0,2.0,69,0.00,CLR,,0.00,WeatherDisplay:10.37,2013-11-05 13:00:00,
2013-11-05 08:05:00,49.0,38.9,30.43,SSW,195,0.0,0.0,68,0.00,CLR,,0.00,WeatherDisplay:10.37,2013-11-05 13:05:00,
2013-11-05 08:10:00,49.2,39.1,30.43,SSW,195,1.2,1.2,68,0.00,CLR,,0.00,WeatherDisplay:10.37,2013-11-05 13:10:00,
2013-11-05 08:15:00,49.3,38.8,30.42,SSW,195,1.2,1.2,67,0.00,CLR,,0.00,WeatherDisplay:10.37,2013-11-05 13:15:00,
2013-11-05 08:20:00,49.5,39.0,30.43,SSW,195,3.5,3.5,67,0.00,CLR,,0.00,WeatherDisplay:10.37,2013-11-05 13:20:00,
2013-11-05 08:25:00,49.6,38.7,30.43,SSW,195,0.0,0.0,66,0.00,CLR,,0.00,WeatherDisplay:10.37,2013-11-05 13:25:00,
2013-11-05 08:30:00,49.8,38.9,30.43,SSW,195,2.3,2.3,66,0.00,CLR,,0.00,WeatherDisplay:10.37,2013-11-05 13:30:00,
2013-11-05 08:35:00,50.0,38.7,30.44,SSW,195,1.2,0.0,65,0.00,CLR,,0.00,WeatherDisplay:10.37,2013-11-05 13:35:00,
2013-11-05 08:40:00,50.4,38.7,30.44,SSW,194,5.0,5.0,64,0.00,CLR,,0.00,WeatherDisplay:10.37,2013-11-05 13:40:00,
2013-11-05 08:45:00,51.0,38.8,30.44,SSW,194,2.3,2.3,63,0.00,CLR,,0.00,WeatherDisplay:10.37,2013-11-05 13:45:00,
2013-11-05 08:50:00,51.4,38.8,30.44,SSW,195,4.0,4.0,62,0.00,CLR,,0.00,WeatherDisplay:10.37,2013-11-05 13:50:00,
2013-11-05 08:55:00,51.7,38.7,30.44,SSW,195,3.5,3.5,61,0.00,CLR,,0.00,WeatherDisplay:10.37,2013-11-05 13:55:00,
2013-11-05 09:00:00,51.9,38.4,30.44,SSW,193,3.5,3.5,60,0.00,CLR,,0.00,WeatherDisplay:10.37,2013-11-05 14:00:00,
2013-11-05 09:05:00,52.1,38.2,30.43,SSW,193,2.3,2.3,59,0.00,CLR,,0.00,WeatherDisplay:10.37,2013-11-05 14:05:00,
2013-11-05 09:10:00,52.3,38.4,30.44,SSW,193,5.0,5.0,59,0.00,CLR,,0.00,WeatherDisplay:10.37,2013-11-05 14:10:00,
2013-11-05 09:15:00,52.4,38.5,30.44,SW,230,1.2,1.2,59,0.00,CLR,,0.00,WeatherDisplay:10.37,2013-11-05 14:15:00,
2013-11-05 09:20:00,52.6,38.7,30.43,SSW,205,4.0,4.0,59,0.00,CLR,,0.00,WeatherDisplay:10.37,2013-11-05 14:20:00,
2013-11-05 09:25:00,52.6,38.2,30.44,SSW,199,7.0,7.0,58,0.00,CLR,,0.00,WeatherDisplay:10.37,2013-11-05 14:25:00,
2013-11-05 09:30:00,52.7,38.8,30.44,SSW,201,3.5,3.5,59,0.00,CLR,,0.00,WeatherDisplay:10.37,2013-11-05 14:30:00,
2013-11-05 09:35:00,52.7,38.3,30.44,SSW,205,6.9,6.9,58,0.00,CLR,,0.00,WeatherDisplay:10.37,2013-11-05 14:35:00,
2013-11-05 09:40:00,52.9,39.0,30.43,SSW,193,3.5,3.5,59,0.00,CLR,,0.00,WeatherDisplay:10.37,2013-11-05 14:40:00,
2013-11-05 09:45:00,53.2,39.2,30.44,SW,220,5.0,5.0,59,0.00,CLR,,0.00,WeatherDisplay:10.37,2013-11-05 14:45:00,
2013-11-05 09:50:00,53.3,39.3,30.43,South,187,4.0,4.0,59,0.00,CLR,,0.00,WeatherDisplay:10.37,2013-11-05 14:50:00,
2013-11-05 09:55:00,53.6,39.6,30.43,South,185,4.6,4.6,59,0.00,CLR,,0.00,WeatherDisplay:10.37,2013-11-05 14:55:00,
2013-11-05 10:00:00,53.8,39.8,30.43,South,185,3.5,0.0,59,0.00,CLR,,0.00,WeatherDisplay:10.37,2013-11-05 15:00:00,
2013-11-05 10:05:00,54.0,40.0,30.43,South,187,1.2,1.2,59,0.00,CLR,,0.00,WeatherDisplay:10.37,2013-11-05 15:05:00,
2013-11-05 10:10:00,54.2,39.7,30.44,SSE,162,10.4,10.4,58,0.00,CLR,,0.00,WeatherDisplay:10.37,2013-11-05 15:10:00,
2013-11-05 10:15:00,54.6,40.1,30.44,South,171,1.2,1.2,58,0.00,CLR,,0.00,WeatherDisplay:10.37,2013-11-05 15:15:00,
2013-11-05 10:20:00,55.5,40.0,30.44,South,187,3.0,3.0,56,0.00,CLR,,0.00,WeatherDisplay:10.37,2013-11-05 15:20:00,
2013-11-05 10:25:00,56.0,41.0,30.44,South,189,4.0,4.0,57,0.00,CLR,,0.00,WeatherDisplay:10.37,2013-11-05 15:25:00,
2013-11-05 10:30:00,55.9,39.5,30.44,South,175,4.0,4.0,54,0.00,CLR,,0.00,WeatherDisplay:10.37,2013-11-05 15:30:00,
2013-11-05 10:35:00,55.8,39.9,30.44,South,176,4.0,4.0,55,0.00,CLR,,0.00,WeatherDisplay:10.37,2013-11-05 15:35:00,
2013-11-05 10:40:00,55.9,40.4,30.44,South,176,2.3,2.3,56,0.00,CLR,,0.00,WeatherDisplay:10.37,2013-11-05 15:40:00,
2013-11-05 10:45:00,56.0,40.1,30.44,South,180,4.0,4.0,55,0.00,CLR,,0.00,WeatherDisplay:10.37,2013-11-05 15:45:00,
2013-11-05 10:50:00,56.2,40.2,30.44,SSW,193,2.3,2.3,55,0.00,CLR,,0.00,WeatherDisplay:10.37,2013-11-05 15:50:00,
2013-11-05 10:55:00,56.2,40.2,30.44,South,189,6.0,6.0,55,0.00,CLR,,0.00,WeatherDisplay:10.37,2013-11-05 15:55:00,
2013-11-05 11:00:00,56.1,40.1,30.44,SSW,193,3.5,3.5,55,0.00,CLR,,0.00,WeatherDisplay:10.37,2013-11-05 16:00:00,
2013-11-05 11:05:00,56.5,40.5,30.44,SSW,193,3.5,3.5,55,0.00,CLR,,0.00,WeatherDisplay:10.37,2013-11-05 16:05:00,
2013-11-05 11:10:00,56.6,40.6,30.43,SSW,195,3.5,3.5,55,0.00,CLR,,0.00,WeatherDisplay:10.37,2013-11-05 16:10:00,
2013-11-05 11:15:00,57.2,40.7,30.43,South,190,2.3,2.3,54,0.00,CLR,,0.00,WeatherDisplay:10.37,2013-11-05 16:15:00,
2013-11-05 11:20:00,57.3,40.3,30.43,SSW,207,6.9,6.9,53,0.00,CLR,,0.00,WeatherDisplay:10.37,2013-11-05 16:20:00,
2013-11-05 11:25:00,57.4,40.4,30.43,SSW,193,7.0,7.0,53,0.00,CLR,,0.00,WeatherDisplay:10.37,2013-11-05 16:25:00,
2013-11-05 11:30:00,57.8,40.3,30.43,South,187,8.1,8.1,52,0.00,CLR,,0.00,WeatherDisplay:10.37,2013-11-05 16:30:00,
2013-11-05 11:35:00,57.9,39.9,30.43,South,189,5.8,0.0,51,0.00,CLR,,0.00,WeatherDisplay:10.37,2013-11-05 16:35:00,
2013-11-05 11:40:00,58.0,40.0,30.43,South,187,4.0,4.0,51,0.00,CLR,,0.00,WeatherDisplay:10.37,2013-11-05 16:40:00,
2013-11-05 11:45:00,58.1,40.1,30.42,South,191,4.6,0.0,51,0.00,CLR,,0.00,WeatherDisplay:10.37,2013-11-05 16:45:00,
2013-11-05 11:50:00,58.3,40.2,30.43,South,191,3.5,3.5,51,0.00,CLR,,0.00,WeatherDisplay:10.37,2013-11-05 16:50:00,
2013-11-05 11:55:00,58.4,41.3,30.42,South,191,0.0,0.0,53,0.00,CLR,,0.00,WeatherDisplay:10.37,2013-11-05 16:55:00,
2013-11-05 12:00:00,59.0,41.4,30.42,SSW,192,2.3,2.3,52,0.00,CLR,,0.00,WeatherDisplay:10.37,2013-11-05 17:00:00,
2013-11-05 12:05:00,59.7,41.0,30.42,South,185,8.0,8.0,50,0.00,CLR,,0.00,WeatherDisplay:10.37,2013-11-05 17:05:00,
2013-11-05 12:10:00,60.0,41.3,30.42,SW,220,2.3,0.0,50,0.00,CLR,,0.00,WeatherDisplay:10.37,2013-11-05 17:10:00,
2013-11-05 12:15:00,60.3,41.6,30.42,SW,220,4.0,4.0,50,0.00,CLR,,0.00,WeatherDisplay:10.37,2013-11-05 17:15:00,
2013-11-05 12:20:00,60.4,41.1,30.42,SW,218,3.5,3.5,49,0.00,CLR,,0.00,WeatherDisplay:10.37,2013-11-05 17:20:00,
2013-11-05 12:25:00,60.5,40.7,30.41,SSW,203,3.0,3.0,48,0.00,CLR,,0.00,WeatherDisplay:10.37,2013-11-05 17:25:00,
2013-11-05 12:30:00,60.4,40.6,30.41,SSW,205,1.2,0.0,48,0.00,CLR,,0.00,WeatherDisplay:10.37,2013-11-05 17:30:00,
2013-11-05 12:35:00,60.3,40.5,30.41,SSW,206,2.3,0.0,48,0.00,CLR,,0.00,WeatherDisplay:10.37,2013-11-05 17:35:00,
2013-11-05 12:40:00,60.5,41.2,30.41,SSW,207,0.0,0.0,49,0.00,CLR,,0.00,WeatherDisplay:10.37,2013-11-05 17:40:00,
2013-11-05 12:45:00,61.3,41.4,30.40,SSW,207,4.0,4.0,48,0.00,CLR,,0.00,WeatherDisplay:10.37,2013-11-05 17:45:00,
2013-11-05 12:50:00,62.2,41.7,30.40,SSW,207,0.0,0.0,47,0.00,CLR,,0.00,WeatherDisplay:10.37,2013-11-05 17:50:00,
2013-11-05 12:55:00,62.9,41.2,30.40,SSW,205,4.0,4.0,45,0.00,CLR,,0.00,WeatherDisplay:10.37,2013-11-05 17:55:00,
2013-11-05 13:00:00,63.0,41.3,30.40,SSW,205,3.5,3.5,45,0.00,CLR,,0.00,WeatherDisplay:10.37,2013-11-05 18:00:00,
2013-11-05 13:05:00,63.5,41.8,30.39,SSW,205,4.0,4.0,45,0.00,CLR,,0.00,WeatherDisplay:10.37,2013-11-05 18:05:00,
2013-11-05 13:10:00,63.6,40.7,30.39,SSW,211,3.5,0.0,43,0.00,CLR,,0.00,WeatherDisplay:10.37,2013-11-05 18:10:00,
2013-11-05 13:15:00,63.8,42.0,30.39,SSW,211,3.5,3.5,45,0.00,CLR,,0.00,WeatherDisplay:10.37,2013-11-05 18:15:00,
2013-11-05 13:20:00,63.9,42.1,30.38,SSW,210,0.0,0.0,45,0.00,CLR,,0.00,WeatherDisplay:10.37,2013-11-05 18:20:00,
2013-11-05 13:25:00,64.7,41.7,30.39,SSW,211,4.0,4.0,43,0.00,CLR,,0.00,WeatherDisplay:10.37,2013-11-05 18:25:00,
2013-11-05 13:30:00,64.9,42.5,30.38,SSW,211,2.3,2.3,44,0.00,CLR,,0.00,WeatherDisplay:10.37,2013-11-05 18:30:00,
2013-11-05 13:35:00,65.4,41.7,30.38,SW,217,6.0,6.0,42,0.00,CLR,,0.00,WeatherDisplay:10.37,2013-11-05 18:35:00,
2013-11-05 13:40:00,65.4,41.7,30.38,SW,217,2.0,2.0,42,0.00,CLR,,0.00,WeatherDisplay:10.37,2013-11-05 18:40:00,
2013-11-05 13:45:00,65.7,42.0,30.37,SSW,212,2.3,2.3,42,0.00,CLR,,0.00,WeatherDisplay:10.37,2013-11-05 18:45:00,
2013-11-05 13:50:00,65.9,40.9,30.37,SSW,212,2.3,2.3,40,0.00,CLR,,0.00,WeatherDisplay:10.37,2013-11-05 18:50:00,
2013-11-05 13:55:00,65.6,41.3,30.37,SSW,203,6.0,6.0,41,0.00,CLR,,0.00,WeatherDisplay:10.37,2013-11-05 18:55:00,
2013-11-05 14:00:00,66.4,40.0,30.37,SSW,204,9.2,9.2,38,0.00,CLR,,0.00,WeatherDisplay:10.37,2013-11-05 19:00:00,
2013-11-05 14:05:00,66.3,39.9,30.36,SSW,202,2.3,2.3,38,0.00,CLR,,0.00,WeatherDisplay:10.37,2013-11-05 19:05:00,
2013-11-05 14:10:00,66.5,41.4,30.36,SSW,202,5.0,5.0,40,0.00,CLR,,0.00,WeatherDisplay:10.37,2013-11-05 19:10:00,
2013-11-05 14:15:00,66.9,39.8,30.36,SSW,194,3.0,3.0,37,0.00,CLR,,0.00,WeatherDisplay:10.37,2013-11-05 19:15:00,
2013-11-05 14:20:00,67.1,39.9,30.36,SSW,195,4.0,4.0,37,0.00,CLR,,0.00,WeatherDisplay:10.37,2013-11-05 19:20:00,
2013-11-05 14:25:00,66.8,38.3,30.35,SW,228,8.0,8.0,35,0.00,CLR,,0.00,WeatherDisplay:10.37,2013-11-05 19:25:00,
2013-11-05 14:30:00,65.8,38.8,30.35,SSW,206,1.2,0.0,37,0.00,CLR,,0.00,WeatherDisplay:10.37,2013-11-05 19:30:00,
2013-11-05 14:35:00,66.0,39.0,30.34,SSW,193,3.0,3.0,37,0.00,CLR,,0.00,WeatherDisplay:10.37,2013-11-05 19:35:00,
2013-11-05 14:40:00,65.9,39.6,30.35,SSW,193,1.2,0.0,38,0.00,CLR,,0.00,WeatherDisplay:10.37,2013-11-05 19:40:00,
2013-11-05 14:45:00,65.1,38.2,30.35,SW,232,6.0,6.0,37,0.00,CLR,,0.00,WeatherDisplay:10.37,2013-11-05 19:45:00,
2013-11-05 14:50:00,65.3,39.0,30.34,South,191,7.0,7.0,38,0.00,CLR,,0.00,WeatherDisplay:10.37,2013-11-05 19:50:00,
2013-11-05 14:55:00,66.0,38.3,30.34,South,185,3.5,3.5,36,0.00,CLR,,0.00,WeatherDisplay:10.37,2013-11-05 19:55:00,
2013-11-05 15:00:00,66.1,37.6,30.34,SW,217,3.0,3.0,35,0.00,CLR,,0.00,WeatherDisplay:10.37,2013-11-05 20:00:00,
2013-11-05 15:05:00,66.5,38.7,30.34,SW,214,1.0,0.0,36,0.00,CLR,,0.00,WeatherDisplay:10.37,2013-11-05 20:05:00,
2013-11-05 15:10:00,66.6,37.3,30.34,SW,230,7.0,7.0,34,0.00,CLR,,0.00,WeatherDisplay:10.37,2013-11-05 20:10:00,
2013-11-05 15:15:00,65.5,37.1,30.34,SW,230,3.5,3.5,35,0.00,CLR,,0.00,WeatherDisplay:10.37,2013-11-05 20:15:00,
2013-11-05 15:20:00,65.7,38.7,30.34,SW,226,2.0,2.0,37,0.00,CLR,,0.00,WeatherDisplay:10.37,2013-11-05 20:20:00,
2013-11-05 15:25:00,66.2,37.7,30.34,SW,225,2.3,2.3,35,0.00,CLR,,0.00,WeatherDisplay:10.37,2013-11-05 20:25:00,
2013-11-05 15:30:00,65.6,37.2,30.34,SSW,205,5.0,5.0,35,0.00,CLR,,0.00,WeatherDisplay:10.37,2013-11-05 20:30:00,
2013-11-05 15:35:00,65.9,38.2,30.34,SSW,206,3.5,3.5,36,0.00,CLR,,0.00,WeatherDisplay:10.37,2013-11-05 20:35:00,
2013-11-05 15:40:00,66.3,37.8,30.34,SSW,195,8.0,8.0,35,0.00,CLR,,0.00,WeatherDisplay:10.37,2013-11-05 20:40:00,
2013-11-05 15:45:00,66.0,37.5,30.33,SSW,193,3.5,3.5,35,0.00,CLR,,0.00,WeatherDisplay:10.37,2013-11-05 20:45:00,
2013-11-05 15:50:00,65.5,37.1,30.32,South,191,2.3,2.3,35,0.00,CLR,,0.00,WeatherDisplay:10.37,2013-11-05 20:50:00,
2013-11-05 15:55:00,65.4,37.0,30.33,South,186,4.0,4.0,35,0.00,CLR,,0.00,WeatherDisplay:10.37,2013-11-05 20:55:00,
2013-11-05 16:00:00,65.1,36.8,30.33,SSW,212,3.5,3.5,35,0.00,CLR,,0.00,WeatherDisplay:10.37,2013-11-05 21:00:00,
2013-11-05 16:05:00,65.2,36.8,30.32,SW,214,1.2,1.2,35,0.00,CLR,,0.00,WeatherDisplay:10.37,2013-11-05 21:05:00,
2013-11-05 16:10:00,65.4,37.7,30.33,SW,214,2.0,2.0,36,0.00,CLR,,0.00,WeatherDisplay:10.37,2013-11-05 21:10:00,
2013-11-05 16:15:00,65.2,37.6,30.32,SW,214,3.5,3.5,36,0.00,CLR,,0.00,WeatherDisplay:10.37,2013-11-05 21:15:00,
2013-11-05 16:20:00,64.8,37.2,30.32,SW,214,2.3,2.3,36,0.00,CLR,,0.00,WeatherDisplay:10.37,2013-11-05 21:20:00,
2013-11-05 16:25:00,64.5,37.6,30.32,SSW,212,4.0,4.0,37,0.00,CLR,,0.00,WeatherDisplay:10.37,2013-11-05 21:25:00,
2013-11-05 16:30:00,64.3,38.1,30.32,SSW,212,4.0,4.0,38,0.00,CLR,,0.00,WeatherDisplay:10.37,2013-11-05 21:30:00,
2013-11-05 16:35:00,64.1,38.0,30.32,SSW,212,3.5,3.5,38,0.00,CLR,,0.00,WeatherDisplay:10.37,2013-11-05 21:35:00,
2013-11-05 16:40:00,64.5,38.3,30.32,SSW,211,0.0,0.0,38,0.00,CLR,,0.00,WeatherDisplay:10.37,2013-11-05 21:40:00,
2013-11-05 16:45:00,64.8,37.9,30.32,SSW,210,2.3,2.3,37,0.00,CLR,,0.00,WeatherDisplay:10.37,2013-11-05 21:45:00,
2013-11-05 16:50:00,64.7,38.5,30.32,SSW,211,2.3,2.3,38,0.00,CLR,,0.00,WeatherDisplay:10.37,2013-11-05 21:50:00,
2013-11-05 16:55:00,64.2,37.4,30.32,SSW,209,4.0,4.0,37,0.00,CLR,,0.00,WeatherDisplay:10.37,2013-11-05 21:55:00,
2013-11-05 17:00:00,63.9,37.1,30.32,SSW,196,3.5,3.5,37,0.00,CLR,,0.00,WeatherDisplay:10.37,2013-11-05 22:00:00,
2013-11-05 17:05:00,63.9,37.8,30.32,SSW,196,2.3,2.3,38,0.00,CLR,,0.00,WeatherDisplay:10.37,2013-11-05 22:05:00,
2013-11-05 17:10:00,63.7,37.6,30.32,SSW,196,1.2,1.2,38,0.00,CLR,,0.00,WeatherDisplay:10.37,2013-11-05 22:10:00,
2013-11-05 17:15:00,63.2,37.2,30.31,SSW,196,3.5,3.5,38,0.00,CLR,,0.00,WeatherDisplay:10.37,2013-11-05 22:15:00,
2013-11-05 17:20:00,62.8,37.5,30.31,SSW,196,2.3,2.3,39,0.00,CLR,,0.00,WeatherDisplay:10.37,2013-11-05 22:20:00,
2013-11-05 17:25:00,62.1,37.5,30.31,SSW,196,4.0,4.0,40,0.00,CLR,,0.00,WeatherDisplay:10.37,2013-11-05 22:25:00,
2013-11-05 17:30:00,61.6,37.0,30.31,SSW,196,2.3,2.3,40,0.00,CLR,,0.00,WeatherDisplay:10.37,2013-11-05 22:30:00,
2013-11-05 17:35:00,61.2,37.3,30.31,SSW,196,2.3,2.3,41,0.00,CLR,,0.00,WeatherDisplay:10.37,2013-11-05 22:35:00,
2013-11-05 17:40:00,60.7,37.5,30.31,SSW,195,0.0,0.0,42,0.00,CLR,,0.00,WeatherDisplay:10.37,2013-11-05 22:40:00,
2013-11-05 17:45:00,60.3,37.7,30.31,SSW,196,1.2,0.0,43,0.00,CLR,,0.00,WeatherDisplay:10.37,2013-11-05 22:45:00,
2013-11-05 17:50:00,59.9,37.9,30.31,SSW,196,2.3,2.3,44,0.00,CLR,,0.00,WeatherDisplay:10.37,2013-11-05 22:50:00,
2013-11-05 17:55:00,59.4,38.0,30.31,SSW,196,0.0,0.0,45,0.00,CLR,,0.00,WeatherDisplay:10.37,2013-11-05 22:55:00,
2013-11-05 18:00:00,59.0,38.2,30.31,SSW,195,3.5,3.5,46,0.00,CLR,,0.00,WeatherDisplay:10.37,2013-11-05 23:00:00,
2013-11-05 18:05:00,59.0,38.2,30.30,SSW,196,1.2,1.2,46,0.00,CLR,,0.00,WeatherDisplay:10.37,2013-11-05 23:05:00,
2013-11-05 18:10:00,58.7,39.0,30.30,SSW,196,0.0,0.0,48,0.00,CLR,,0.00,WeatherDisplay:10.37,2013-11-05 23:10:00,
2013-11-05 18:15:00,58.4,38.2,30.30,SSW,196,1.0,1.0,47,0.00,CLR,,0.00,WeatherDisplay:10.37,2013-11-05 23:15:00,
2013-11-05 18:20:00,58.1,38.0,30.30,SSW,195,0.0,0.0,47,0.00,CLR,,0.00,WeatherDisplay:10.37,2013-11-05 23:20:00,
2013-11-05 18:25:00,57.8,38.8,30.30,SSW,196,0.0,0.0,49,0.00,CLR,,0.00,WeatherDisplay:10.37,2013-11-05 23:25:00,
2013-11-05 18:30:00,57.6,38.6,30.30,SSW,196,1.2,0.0,49,0.00,CLR,,0.00,WeatherDisplay:10.37,2013-11-05 23:30:00,
2013-11-05 18:35:00,57.5,38.5,30.30,SSW,196,2.3,2.3,49,0.00,CLR,,0.00,WeatherDisplay:10.37,2013-11-05 23:35:00,
2013-11-05 18:40:00,57.4,38.4,30.30,SSW,196,1.0,0.0,49,0.00,CLR,,0.00,WeatherDisplay:10.37,2013-11-05 23:40:00,
2013-11-05 18:45:00,57.3,38.8,30.30,SSW,195,0.0,0.0,50,0.00,CLR,,0.00,WeatherDisplay:10.37,2013-11-05 23:45:00,
2013-11-05 18:50:00,57.0,38.5,30.30,SSW,196,1.2,0.0,50,0.00,CLR,,0.00,WeatherDisplay:10.37,2013-11-05 23:50:00,
2013-11-05 18:55:00,56.7,38.8,30.30,SSW,196,0.0,0.0,51,0.00,CLR,,0.00,WeatherDisplay:10.37,2013-11-05 23:55:00,
2013-11-05 19:00:00,56.4,38.5,30.30,SSW,196,1.0,0.0,51,0.00,CLR,,0.00,WeatherDisplay:10.37,2013-11-06 00:00:00,
2013-11-05 19:05:00,56.4,38.5,30.30,SSW,196,1.0,1.0,51,0.00,CLR,,0.00,WeatherDisplay:10.37,2013-11-06 00:05:00,
2013-11-05 19:10:00,56.4,38.5,30.30,SSW,196,3.5,3.5,51,0.00,CLR,,0.00,WeatherDisplay:10.37,2013-11-06 00:10:00,
2013-11-05 19:15:00,56.4,38.5,30.30,SSW,195,1.2,0.0,51,0.00,CLR,,0.00,WeatherDisplay:10.37,2013-11-06 00:15:00,
2013-11-05 19:20:00,56.3,38.4,30.29,SSW,196,2.3,2.3,51,0.00,CLR,,0.00,WeatherDisplay:10.37,2013-11-06 00:20:00,
2013-11-05 19:25:00,56.1,38.7,30.29,SSW,196,0.0,0.0,52,0.00,CLR,,0.00,WeatherDisplay:10.37,2013-11-06 00:25:00,
2013-11-05 19:30:00,56.0,38.1,30.29,SSW,196,0.0,0.0,51,0.00,CLR,,0.00,WeatherDisplay:10.37,2013-11-06 00:30:00,
2013-11-05 19:35:00,56.1,38.2,30.29,SSW,195,1.2,1.2,51,0.00,CLR,,0.00,WeatherDisplay:10.37,2013-11-06 00:35:00,
2013-11-05 19:40:00,56.1,38.2,30.29,SSW,195,0.0,0.0,51,0.00,CLR,,0.00,WeatherDisplay:10.37,2013-11-06 00:40:00,
2013-11-05 19:45:00,56.0,38.6,30.29,SSW,195,0.0,0.0,52,0.00,CLR,,0.00,WeatherDisplay:10.37,2013-11-06 00:45:00,
2013-11-05 19:50:00,55.8,38.4,30.29,SSW,196,0.0,0.0,52,0.00,CLR,,0.00,WeatherDisplay:10.37,2013-11-06 00:50:00,
2013-11-05 19:55:00,55.7,38.3,30.29,SSW,196,1.2,0.0,52,0.00,CLR,,0.00,WeatherDisplay:10.37,2013-11-06 00:55:00,
2013-11-05 20:00:00,55.7,38.3,30.29,SSW,195,1.2,1.2,52,0.00,CLR,,0.00,WeatherDisplay:10.37,2013-11-06 01:00:00,
2013-11-05 20:05:00,55.7,38.3,30.29,SSW,196,2.3,2.3,52,0.00,CLR,,0.00,WeatherDisplay:10.37,2013-11-06 01:05:00,
2013-11-05 20:10:00,55.5,38.1,30.29,SSW,196,1.2,0.0,52,0.00,CLR,,0.00,WeatherDisplay:10.37,2013-11-06 01:10:00,
2013-11-05 20:16:00,55.6,37.7,30.29,SSW,196,1.2,1.2,51,0.00,CLR,,0.00,WeatherDisplay:10.37,2013-11-06 01:16:00,
2013-11-05 20:21:00,55.8,37.9,30.29,SSW,195,4.0,4.0,51,0.00,CLR,,0.00,WeatherDisplay:10.37,2013-11-06 01:21:00,
2013-11-05 20:26:00,55.9,37.5,30.29,SSW,195,5.0,5.0,50,0.00,CLR,,0.00,WeatherDisplay:10.37,2013-11-06 01:26:00,
2013-11-05 20:31:00,56.0,37.6,30.29,SSW,195,1.2,0.0,50,0.00,CLR,,0.00,WeatherDisplay:10.37,2013-11-06 01:31:00,
2013-11-05 20:36:00,55.9,37.5,30.29,SSW,195,3.5,3.5,50,0.00,CLR,,0.00,WeatherDisplay:10.37,2013-11-06 01:36:00,
2013-11-05 20:41:00,55.7,37.3,30.29,SSW,195,1.2,0.0,50,0.00,CLR,,0.00,WeatherDisplay:10.37,2013-11-06 01:41:00,
2013-11-05 20:46:00,55.6,37.2,30.29,SSW,195,3.5,3.5,50,0.00,CLR,,0.00,WeatherDisplay:10.37,2013-11-06 01:46:00,
2013-11-05 20:51:00,55.5,37.1,30.29,SSW,195,1.0,1.0,50,0.00,CLR,,0.00,WeatherDisplay:10.37,2013-11-06 01:51:00,
2013-11-05 20:56:00,55.4,37.1,30.29,SSW,195,4.0,4.0,50,0.00,CLR,,0.00,WeatherDisplay:10.37,2013-11-06 01:56:00,
2013-11-05 21:01:00,55.4,37.1,30.29,SSW,195,2.3,2.3,50,0.00,CLR,,0.00,WeatherDisplay:10.37,2013-11-06 02:01:00,
2013-11-05 21:06:00,55.2,37.4,30.29,SSW,195,2.3,2.3,51,0.00,CLR,,0.00,WeatherDisplay:10.37,2013-11-06 02:06:00,
2013-11-05 21:11:00,55.1,37.3,30.29,SSW,195,2.3,2.3,51,0.00,CLR,,0.00,WeatherDisplay:10.37,2013-11-06 02:11:00,
2013-11-05 21:16:00,55.0,37.2,30.29,SSW,195,3.5,3.5,51,0.00,CLR,,0.00,WeatherDisplay:10.37,2013-11-06 02:16:00,
2013-11-05 21:21:00,54.9,37.1,30.29,SSW,195,2.3,0.0,51,0.00,CLR,,0.00,WeatherDisplay:10.37,2013-11-06 02:21:00,
2013-11-05 21:26:00,54.7,36.9,30.29,SSW,195,2.3,2.3,51,0.00,CLR,,0.00,WeatherDisplay:10.37,2013-11-06 02:26:00,
2013-11-05 21:31:00,54.5,36.7,30.29,SSW,195,3.5,3.5,51,0.00,CLR,,0.00,WeatherDisplay:10.37,2013-11-06 02:31:00,
2013-11-05 21:36:00,54.5,37.2,30.29,SSW,195,1.2,1.2,52,0.00,CLR,,0.00,WeatherDisplay:10.37,2013-11-06 02:36:00,
2013-11-05 21:41:00,54.4,36.6,30.29,SSW,194,3.0,3.0,51,0.00,CLR,,0.00,WeatherDisplay:10.37,2013-11-06 02:41:00,
2013-11-05 21:46:00,54.5,36.7,30.29,South,191,4.0,4.0,51,0.00,CLR,,0.00,WeatherDisplay:10.37,2013-11-06 02:46:00,
2013-11-05 21:51:00,54.6,36.8,30.28,South,191,3.5,3.5,51,0.00,CLR,,0.00,WeatherDisplay:10.37,2013-11-06 02:51:00,
2013-11-05 21:56:00,54.5,36.7,30.29,South,190,0.0,0.0,51,0.00,CLR,,0.00,WeatherDisplay:10.37,2013-11-06 02:56:00,
2013-11-05 22:01:00,54.4,36.6,30.29,SSW,192,3.0,3.0,51,0.00,CLR,,0.00,WeatherDisplay:10.37,2013-11-06 03:01:00,
2013-11-05 22:06:00,54.2,36.5,30.29,South,191,3.5,3.5,51,0.00,CLR,,0.00,WeatherDisplay:10.37,2013-11-06 03:06:00,
2013-11-05 22:11:00,54.1,36.9,30.29,South,191,5.0,5.0,52,0.00,CLR,,0.00,WeatherDisplay:10.37,2013-11-06 03:11:00,
2013-11-05 22:16:00,53.9,36.7,30.29,South,191,2.3,2.3,52,0.00,CLR,,0.00,WeatherDisplay:10.37,2013-11-06 03:16:00,
2013-11-05 22:21:00,53.5,36.8,30.29,South,191,2.3,2.3,53,0.00,CLR,,0.00,WeatherDisplay:10.37,2013-11-06 03:21:00,
2013-11-05 22:26:00,53.4,36.7,30.29,South,189,3.0,3.0,53,0.00,CLR,,0.00,WeatherDisplay:10.37,2013-11-06 03:26:00,
2013-11-05 22:31:00,53.4,36.2,30.28,South,189,2.3,2.3,52,0.00,CLR,,0.00,WeatherDisplay:10.37,2013-11-06 03:31:00,
2013-11-05 22:36:00,53.3,36.1,30.28,South,189,2.3,2.3,52,0.00,CLR,,0.00,WeatherDisplay:10.37,2013-11-06 03:36:00,
2013-11-05 22:41:00,53.1,36.4,30.28,South,189,4.0,4.0,53,0.00,CLR,,0.00,WeatherDisplay:10.37,2013-11-06 03:41:00,
2013-11-05 22:46:00,52.9,36.2,30.28,South,189,1.2,1.2,53,0.00,CLR,,0.00,WeatherDisplay:10.37,2013-11-06 03:46:00,
2013-11-05 22:51:00,52.9,36.2,30.28,South,189,4.0,4.0,53,0.00,CLR,,0.00,WeatherDisplay:10.37,2013-11-06 03:51:00,
2013-11-05 22:56:00,52.7,36.0,30.27,South,189,2.3,2.3,53,0.00,CLR,,0.00,WeatherDisplay:10.37,2013-11-06 03:56:00,
2013-11-05 23:01:00,52.6,35.9,30.27,South,187,2.3,2.3,53,0.00,CLR,,0.00,WeatherDisplay:10.37,2013-11-06 04:01:00,
2013-11-05 23:06:00,52.4,36.2,30.27,South,187,3.5,3.5,54,0.00,CLR,,0.00,WeatherDisplay:10.37,2013-11-06 04:06:00,
2013-11-05 23:11:00,52.4,36.2,30.27,South,187,4.0,4.0,54,0.00,CLR,,0.00,WeatherDisplay:10.37,2013-11-06 04:11:00,
2013-11-05 23:16:00,52.4,36.2,30.27,South,187,4.0,4.0,54,0.00,CLR,,0.00,WeatherDisplay:10.37,2013-11-06 04:16:00,
2013-11-05 23:21:00,52.3,36.1,30.27,South,187,3.5,3.5,54,0.00,CLR,,0.00,WeatherDisplay:10.37,2013-11-06 04:21:00,
2013-11-05 23:26:00,52.1,35.9,30.27,South,187,4.0,4.0,54,0.00,CLR,,0.00,WeatherDisplay:10.37,2013-11-06 04:26:00,
2013-11-05 23:31:00,52.0,35.9,30.27,South,187,2.3,2.3,54,0.00,CLR,,0.00,WeatherDisplay:10.37,2013-11-06 04:31:00,
2013-11-05 23:36:00,51.9,36.2,30.27,South,187,1.2,1.2,55,0.00,CLR,,0.00,WeatherDisplay:10.37,2013-11-06 04:36:00,
2013-11-05 23:41:00,51.9,36.2,30.27,South,187,3.5,3.5,55,0.00,CLR,,0.00,WeatherDisplay:10.37,2013-11-06 04:41:00,
2013-11-05 23:46:00,51.9,36.2,30.27,South,187,1.2,0.0,55,0.00,CLR,,0.00,WeatherDisplay:10.37,2013-11-06 04:46:00,
2013-11-05 23:51:00,51.9,36.2,30.26,South,186,2.3,2.3,55,0.00,CLR,,0.00,WeatherDisplay:10.37,2013-11-06 04:51:00,
2013-11-05 23:56:00,51.9,36.7,30.26,South,187,2.3,2.3,56,0.00,CLR,,0.00,WeatherDisplay:10.37,2013-11-06 04:56:00,